Weather History for KHCO - September, 2013

Change the Weather History Date:

Saturday, September 7, 2013

  Actual Average (KGFK) Record (KGFK)
Temperature  
Mean Temperature 70 °F 61 °F  
Max Temperature 80 °F 74 °F 96 °F (1980)
Min Temperature 60 °F 48 °F 32 °F (1979)
Degree Days  
Heating Degree Days 0 6  
Month to date heating degree days 34  
Since 1 July heating degree days 116  
Cooling Degree Days 5 1  
Month to date cooling degree days 13  
Year to date cooling degree days 365  
Growing Degree Days 20 (Base 50)    
Moisture  
Dew Point 55 °F    
Average Humidity 61    
Maximum Humidity 82    
Minimum Humidity 34    
Precipitation  
Precipitation 0.00 in 0.07 in 2.89 in (1970)
Month to date precipitation 0.54  
Year to date precipitation 15.77  
Snow  
Snow 0.00 in 0.00 in 0.00 in ()
Month to date snowfall 0.0  
Since 1 July snowfall 0.0  
Since 1 September snowfall 0.0  
Snow Depth -    
Sea Level Pressure  
Sea Level Pressure 30.05 in    
Wind  
Wind Speed 9 mph (NNE)    
Max Wind Speed 15 mph    
Max Gust Speed 22 mph    
Visibility 10 miles    
Events      
T = Trace of Precipitation, MM = Missing Value Source: NWS Daily Summary

Daily Weather History Graph

Daily Weather History Graph

Search for Another Location

Airport or City:

Trip Planner

Search our weather history database for the weather conditions in past years. The results will help you decide how hot, cold, wet, or windy it might be!

Date:

Astronomy

Sep. 07, 2013 Rise Set
Actual Time 6:53 AM CDT 7:56 PM CDT
Civil Twilight 6:21 AM CDT 8:28 PM CDT
Nautical Twilight 5:42 AM CDT 9:07 PM CDT
Astronomical Twilight 5:01 AM CDT 9:48 PM CDT
Moon 9:25 AM CDT (9/7) 8:37 PM CDT (9/7)
Length of Visible Light 14h 07m
Length of Day
13h 03m
Waxing Crescent, 5% of the Moon is Illuminated
Sep 7
Waxing Crescent
Sep 12
First Quarter
Sep 19
Full
Sep 26
Last Quarter
Oct 4
New

Hourly Weather History & Observations

Time (CDT) Temp. Heat Index Dew Point Humidity Pressure Visibility Wind Dir Wind Speed Gust Speed Precip Events Conditions
12:13 AM 71.6 °F - 60.8 °F 69% 29.91 in 10.0 mi NNE 8.1 mph - N/A   Clear
12:33 AM 71.6 °F - 60.8 °F 69% 29.91 in 10.0 mi NNE 6.9 mph - N/A   Clear
12:53 AM 69.8 °F - 60.8 °F 73% 29.91 in 10.0 mi NNE 6.9 mph - N/A   Clear
1:13 AM 69.8 °F - 60.8 °F 73% 29.93 in 10.0 mi North 8.1 mph - N/A   Clear
1:33 AM 69.8 °F - 57.2 °F 64% 29.94 in 10.0 mi North 6.9 mph - N/A   Mostly Cloudy
1:53 AM 68.0 °F - 57.2 °F 68% 29.93 in 10.0 mi North 8.1 mph - N/A   Mostly Cloudy
2:13 AM 68.0 °F - 55.4 °F 64% 29.94 in 10.0 mi North 10.4 mph - N/A   Mostly Cloudy
2:33 AM 66.2 °F - 55.4 °F 68% 29.94 in 10.0 mi North 8.1 mph - N/A   Scattered Clouds
2:53 AM 66.2 °F - 55.4 °F 68% 29.94 in 10.0 mi North 11.5 mph - N/A   Scattered Clouds
3:13 AM 66.2 °F - 57.2 °F 73% 29.94 in 10.0 mi North 8.1 mph - N/A   Scattered Clouds
3:33 AM 66.2 °F - 57.2 °F 73% 29.95 in 10.0 mi NNW 6.9 mph - N/A   Clear
3:53 AM 64.4 °F - 57.2 °F 77% 29.95 in 10.0 mi North 8.1 mph - N/A   Mostly Cloudy
4:13 AM 64.4 °F - 57.2 °F 77% 29.96 in 10.0 mi North 9.2 mph - N/A   Scattered Clouds
4:33 AM 64.4 °F - 57.2 °F 77% 29.97 in 10.0 mi NNW 8.1 mph - N/A   Clear
4:54 AM 64.4 °F - 57.2 °F 77% 29.96 in 10.0 mi North 6.9 mph - N/A   Scattered Clouds
5:13 AM 64.4 °F - 57.2 °F 77% 29.98 in 10.0 mi NNW 8.1 mph - N/A   Scattered Clouds
5:33 AM 64.4 °F - 57.2 °F 77% 29.99 in 10.0 mi NNW 9.2 mph - N/A   Scattered Clouds
5:54 AM 62.6 °F - 57.2 °F 82% 30.00 in 10.0 mi North 5.8 mph - N/A   Clear
6:13 AM 62.6 °F - 57.2 °F 82% 30.00 in 10.0 mi North 5.8 mph - N/A   Scattered Clouds
6:33 AM 62.6 °F - 57.2 °F 82% 30.00 in 10.0 mi North 6.9 mph - N/A   Clear
6:54 AM 62.6 °F - 57.2 °F 82% 30.01 in 10.0 mi North 8.1 mph - N/A   Clear
7:13 AM 62.6 °F - 57.2 °F 82% 30.02 in 10.0 mi North 8.1 mph - N/A   Clear
7:33 AM 62.6 °F - 57.2 °F 82% 30.02 in 10.0 mi North 9.2 mph - N/A   Clear
7:54 AM 62.6 °F - 57.2 °F 82% 30.03 in 10.0 mi North 10.4 mph - N/A   Clear
8:13 AM 62.6 °F - 57.2 °F 82% 30.03 in 10.0 mi North 10.4 mph - N/A   Clear
8:33 AM 64.4 °F - 57.2 °F 77% 30.03 in 10.0 mi NNE 11.5 mph - N/A   Clear
8:53 AM 64.4 °F - 57.2 °F 77% 30.04 in 10.0 mi NNE 10.4 mph - N/A   Clear
9:13 AM 66.2 °F - 57.2 °F 73% 30.04 in 10.0 mi NNE 12.7 mph - N/A   Clear
9:33 AM 69.8 °F - 57.2 °F 64% 30.05 in 10.0 mi NNE 10.4 mph - N/A   Clear
9:53 AM 69.8 °F - 57.2 °F 64% 30.06 in 10.0 mi NE 11.5 mph - N/A   Clear
10:13 AM 71.6 °F - 55.4 °F 57% 30.07 in 10.0 mi NNE 11.5 mph - N/A   Clear
10:33 AM 73.4 °F - 57.2 °F 57% 30.08 in 10.0 mi NNE 11.5 mph - N/A   Clear
10:53 AM 75.2 °F - 57.2 °F 53% 30.09 in 10.0 mi NE 10.4 mph - N/A   Clear
11:13 AM 75.2 °F - 55.4 °F 50% 30.09 in 10.0 mi NE 12.7 mph - N/A   Clear
11:33 AM 77.0 °F - 57.2 °F 50% 30.09 in 10.0 mi NNE 12.7 mph - N/A   Clear
11:53 AM 78.8 °F - 57.2 °F 47% 30.10 in 10.0 mi NNE 12.7 mph 18.4 mph N/A   Clear
12:13 PM 78.8 °F - 55.4 °F 44% 30.09 in 10.0 mi NE 12.7 mph 17.3 mph N/A   Clear
12:33 PM 78.8 °F - 55.4 °F 44% 30.10 in 10.0 mi NE 12.7 mph - N/A   Clear
12:53 PM 78.8 °F - 55.4 °F 44% 30.09 in 10.0 mi ENE 13.8 mph 19.6 mph N/A   Clear
1:13 PM 78.8 °F - 53.6 °F 42% 30.09 in 10.0 mi NE 15.0 mph 21.9 mph N/A   Clear
1:33 PM 78.8 °F - 53.6 °F 42% 30.09 in 10.0 mi NNE 11.5 mph - N/A   Clear
1:53 PM 78.8 °F - 51.8 °F 39% 30.09 in 10.0 mi NE 13.8 mph 19.6 mph N/A   Clear
2:13 PM 78.8 °F - 53.6 °F 42% 30.09 in 10.0 mi ENE 15.0 mph 20.7 mph N/A   Clear
2:34 PM 80.6 °F 80.5 °F 55.4 °F 42% 30.09 in 10.0 mi NE 15.0 mph 19.6 mph N/A   Scattered Clouds
2:53 PM 78.8 °F - 55.4 °F 44% 30.09 in 10.0 mi NNE 9.2 mph 17.3 mph N/A   Scattered Clouds
3:13 PM 80.6 °F 80.3 °F 53.6 °F 39% 30.08 in 10.0 mi NE 11.5 mph 17.3 mph N/A   Scattered Clouds
3:33 PM 80.6 °F - 51.8 °F 37% 30.08 in 10.0 mi NE 11.5 mph 16.1 mph N/A   Clear
3:53 PM 77.0 °F - 53.6 °F 44% 30.08 in 10.0 mi ENE 9.2 mph - N/A   Clear
4:13 PM 78.8 °F - 53.6 °F 42% 30.09 in 10.0 mi NE 10.4 mph 16.1 mph N/A   Clear
4:33 PM 78.8 °F - 50.0 °F 36% 30.09 in 10.0 mi East 9.2 mph - N/A   Clear
4:53 PM 75.2 °F - 46.4 °F 36% 30.09 in 10.0 mi ENE 11.5 mph - N/A   Clear
5:13 PM 77.0 °F - 48.2 °F 36% 30.10 in 10.0 mi ENE 6.9 mph - N/A   Clear
5:33 PM 77.0 °F - 46.4 °F 34% 30.11 in 10.0 mi ENE 6.9 mph - N/A   Clear
5:53 PM 75.2 °F - 44.6 °F 34% 30.10 in 10.0 mi ENE 5.8 mph - N/A   Clear
6:13 PM 73.4 °F - 46.4 °F 38% 30.10 in 10.0 mi East 5.8 mph - N/A   Clear
6:33 PM 73.4 °F - 48.2 °F 41% 30.11 in 10.0 mi East 4.6 mph - N/A   Clear
6:53 PM 73.4 °F - 51.8 °F 47% 30.12 in 10.0 mi Calm Calm - N/A   Clear
7:13 PM 71.6 °F - 51.8 °F 50% 30.12 in 10.0 mi ENE 4.6 mph - N/A   Clear
7:33 PM 71.6 °F - 53.6 °F 53% 30.11 in 10.0 mi NE 6.9 mph - N/A   Clear
7:53 PM 69.8 °F - 51.8 °F 53% 30.10 in 7.0 mi East 6.9 mph - N/A   Clear
8:13 PM 68.0 °F - 51.8 °F 56% 30.11 in 7.0 mi East 6.9 mph - N/A   Clear
8:33 PM 66.2 °F - 51.8 °F 60% 30.12 in 10.0 mi East 5.8 mph - N/A   Clear
8:53 PM 66.2 °F - 51.8 °F 60% 30.12 in 10.0 mi East 5.8 mph - N/A   Clear
9:13 PM 64.4 °F - 51.8 °F 64% 30.11 in 10.0 mi East 5.8 mph - N/A   Clear
9:33 PM 62.6 °F - 53.6 °F 72% 30.12 in 10.0 mi East 4.6 mph - N/A   Clear
9:53 PM 62.6 °F - 53.6 °F 72% 30.12 in 10.0 mi East 3.5 mph - N/A   Clear
10:13 PM 62.6 °F - 53.6 °F 72% 30.12 in 10.0 mi ENE 3.5 mph - N/A   Clear
10:33 PM 60.8 °F - 55.4 °F 82% 30.12 in 7.0 mi NNE 3.5 mph - N/A   Clear
10:53 PM 60.8 °F - 53.6 °F 77% 30.12 in 10.0 mi NNE 4.6 mph - N/A   Clear
11:13 PM 60.8 °F - 53.6 °F 77% 30.11 in 10.0 mi NNE 5.8 mph - N/A   Clear
11:33 PM 60.8 °F - 53.6 °F 77% 30.11 in 10.0 mi NE 5.8 mph - N/A   Clear
11:53 PM 60.8 °F - 53.6 °F 77% 30.12 in 10.0 mi NNE 4.6 mph - N/A   Clear